Time,TemperatureF,DewpointF,PressureIn,WindDirection,WindDirectionDegrees,WindSpeedMPH,WindSpeedGustMPH,Humidity,HourlyPrecipIn,Conditions,Clouds,dailyrainin,SoftwareType,DateUTC
2013-02-20 00:03:00,29.9,12.1,29.93,NNE,23,1.1,3.4,47,0.00,,,0.00,WUHU216HW,2013-02-20 05:03:00,
2013-02-20 00:08:00,29.9,12.1,29.94,North,0,0.4,1.8,47,0.00,,,0.00,WUHU216HW,2013-02-20 05:08:00,
2013-02-20 00:13:00,29.7,12.3,29.93,WNW,293,0.0,1.8,48,0.00,,,0.00,WUHU216HW,2013-02-20 05:13:00,
2013-02-20 00:18:00,29.5,12.3,29.93,ENE,68,0.4,0.9,48,0.00,,,0.00,WUHU216HW,2013-02-20 05:18:00,
2013-02-20 00:23:00,29.5,12.3,29.92,NW,315,2.5,2.5,48,0.00,,,0.00,WUHU216HW,2013-02-20 05:23:00,
2013-02-20 00:28:00,29.5,12.3,29.93,South,180,0.7,2.5,48,0.00,,,0.00,WUHU216HW,2013-02-20 05:28:00,
2013-02-20 00:33:00,29.2,11.3,29.92,ENE,68,0.7,1.6,47,0.00,,,0.00,WUHU216HW,2013-02-20 05:33:00,
2013-02-20 00:38:00,29.2,11.3,29.92,WNW,293,0.7,1.6,47,0.00,,,0.00,WUHU216HW,2013-02-20 05:38:00,
2013-02-20 00:43:00,29.2,11.9,29.92,NNE,23,1.8,1.8,48,0.00,,,0.00,WUHU216HW,2013-02-20 05:43:00,
2013-02-20 00:48:00,29.0,11.7,29.92,ESE,113,0.9,1.8,48,0.00,,,0.00,WUHU216HW,2013-02-20 05:48:00,
2013-02-20 00:53:00,29.0,11.7,29.92,ENE,68,0.4,1.8,48,0.00,,,0.00,WUHU216HW,2013-02-20 05:53:00,
2013-02-20 00:58:00,28.8,11.5,29.92,SSW,203,0.9,1.8,48,0.00,,,0.00,WUHU216HW,2013-02-20 05:58:00,
2013-02-20 01:03:00,28.6,10.9,29.91,WNW,293,1.3,1.6,47,0.00,,,0.00,WUHU216HW,2013-02-20 06:03:00,
2013-02-20 01:08:00,28.6,10.9,29.91,NNE,23,1.6,2.0,47,0.00,,,0.00,WUHU216HW,2013-02-20 06:08:00,
2013-02-20 01:13:00,28.4,10.3,29.91,SW,225,1.8,2.0,46,0.00,,,0.00,WUHU216HW,2013-02-20 06:13:00,
2013-02-20 01:18:00,28.4,10.3,29.91,SSW,203,1.1,1.8,46,0.00,,,0.00,WUHU216HW,2013-02-20 06:18:00,
2013-02-20 01:23:00,28.4,10.3,29.90,North,0,1.3,1.6,46,0.00,,,0.00,WUHU216HW,2013-02-20 06:23:00,
2013-02-20 01:28:00,28.3,10.1,29.91,North,0,1.1,1.3,46,0.00,,,0.00,WUHU216HW,2013-02-20 06:28:00,
2013-02-20 01:33:00,28.3,10.1,29.91,NNE,23,0.7,1.1,46,0.00,,,0.00,WUHU216HW,2013-02-20 06:33:00,
2013-02-20 01:38:00,28.1,9.4,29.91,NE,45,1.1,1.8,45,0.00,,,0.00,WUHU216HW,2013-02-20 06:38:00,
2013-02-20 01:43:00,27.9,9.7,29.91,SSW,203,1.1,2.0,46,0.00,,,0.00,WUHU216HW,2013-02-20 06:43:00,
2013-02-20 01:48:00,27.9,9.7,29.91,West,270,0.9,2.0,46,0.00,,,0.00,WUHU216HW,2013-02-20 06:48:00,
2013-02-20 01:53:00,27.7,9.6,29.91,ENE,68,0.4,1.6,46,0.00,,,0.00,WUHU216HW,2013-02-20 06:53:00,
2013-02-20 01:58:00,27.7,9.6,29.91,ENE,68,0.4,1.1,46,0.00,,,0.00,WUHU216HW,2013-02-20 06:58:00,
2013-02-20 02:03:00,27.5,9.8,29.92,ENE,68,0.7,0.9,47,0.00,,,0.00,WUHU216HW,2013-02-20 07:03:00,
2013-02-20 02:08:00,27.4,9.7,29.91,West,270,0.0,0.9,47,0.00,,,0.00,WUHU216HW,2013-02-20 07:08:00,
2013-02-20 02:13:00,27.4,9.7,29.92,NNW,338,0.2,1.1,47,0.00,,,0.00,WUHU216HW,2013-02-20 07:13:00,
2013-02-20 02:18:00,27.2,10.0,29.92,NNW,338,0.0,1.1,48,0.00,,,0.00,WUHU216HW,2013-02-20 07:18:00,
2013-02-20 02:23:00,27.2,10.0,29.91,NW,315,0.4,1.1,48,0.00,,,0.00,WUHU216HW,2013-02-20 07:23:00,
2013-02-20 02:28:00,27.0,9.8,29.92,ENE,68,0.4,0.9,48,0.00,,,0.00,WUHU216HW,2013-02-20 07:28:00,
2013-02-20 02:33:00,27.0,9.8,29.92,WNW,293,0.7,0.9,48,0.00,,,0.00,WUHU216HW,2013-02-20 07:33:00,
2013-02-20 02:38:00,27.0,9.8,29.91,NNW,338,0.2,1.1,48,0.00,,,0.00,WUHU216HW,2013-02-20 07:38:00,
2013-02-20 02:43:00,27.0,9.4,29.91,North,0,1.6,1.6,47,0.00,,,0.00,WUHU216HW,2013-02-20 07:43:00,
2013-02-20 02:48:00,27.0,9.8,29.89,NW,315,0.0,1.6,48,0.00,,,0.00,WUHU216HW,2013-02-20 07:48:00,
2013-02-20 02:53:00,26.8,9.2,29.91,East,90,0.7,0.7,47,0.00,,,0.00,WUHU216HW,2013-02-20 07:53:00,
2013-02-20 02:58:00,26.8,9.2,29.91,SE,135,1.1,1.1,47,0.00,,,0.00,WUHU216HW,2013-02-20 07:58:00,
2013-02-20 03:05:00,26.8,9.2,29.91,NW,315,1.1,1.1,47,0.00,,,0.00,WUHU216HW,2013-02-20 08:05:00,
2013-02-20 03:15:00,26.8,8.2,29.90,WSW,248,1.1,1.3,45,0.00,,,0.00,WUHU216HW,2013-02-20 08:15:00,
2013-02-20 03:20:00,26.8,8.2,29.90,NE,45,0.7,1.3,45,0.00,,,0.00,WUHU216HW,2013-02-20 08:20:00,
2013-02-20 03:25:00,26.6,7.6,29.91,NNE,23,0.7,1.1,44,0.00,,,0.00,WUHU216HW,2013-02-20 08:25:00,
2013-02-20 03:30:00,26.6,7.6,29.91,NE,45,0.9,1.1,44,0.00,,,0.00,WUHU216HW,2013-02-20 08:30:00,
2013-02-20 03:35:00,26.5,7.8,29.91,WNW,293,0.9,1.6,45,0.00,,,0.00,WUHU216HW,2013-02-20 08:35:00,
2013-02-20 03:40:00,26.3,7.7,29.91,NW,315,0.9,1.6,45,0.00,,,0.00,WUHU216HW,2013-02-20 08:40:00,
2013-02-20 03:45:00,26.3,7.7,29.90,NE,45,0.4,1.6,45,0.00,,,0.00,WUHU216HW,2013-02-20 08:45:00,
2013-02-20 03:50:00,26.3,7.2,29.91,NW,315,0.9,2.9,44,0.00,,,0.00,WUHU216HW,2013-02-20 08:50:00,
2013-02-20 03:55:00,26.1,7.0,29.90,North,0,0.4,2.9,44,0.00,,,0.00,WUHU216HW,2013-02-20 08:55:00,
2013-02-20 04:00:00,26.1,7.0,29.91,WNW,293,1.8,1.8,44,0.00,,,0.00,WUHU216HW,2013-02-20 09:00:00,
2013-02-20 04:05:00,26.1,6.6,29.91,SSE,158,1.8,1.8,43,0.00,,,0.00,WUHU216HW,2013-02-20 09:05:00,
2013-02-20 04:10:00,26.1,6.6,29.89,NNE,23,0.0,2.9,43,0.00,,,0.00,WUHU216HW,2013-02-20 09:10:00,
2013-02-20 04:15:00,25.9,6.0,29.89,NNW,338,0.4,2.9,42,0.00,,,0.00,WUHU216HW,2013-02-20 09:15:00,
2013-02-20 04:20:00,25.9,6.4,29.89,NE,45,1.1,1.8,43,0.00,,,0.00,WUHU216HW,2013-02-20 09:20:00,
2013-02-20 04:25:00,25.9,6.4,29.90,WNW,293,0.9,1.1,43,0.00,,,0.00,WUHU216HW,2013-02-20 09:25:00,
2013-02-20 04:30:00,25.9,6.4,29.91,NNE,23,0.7,2.2,43,0.00,,,0.00,WUHU216HW,2013-02-20 09:30:00,
2013-02-20 04:35:00,25.9,6.0,29.90,NNE,23,0.7,2.2,42,0.00,,,0.00,WUHU216HW,2013-02-20 09:35:00,
2013-02-20 04:40:00,25.9,6.0,29.89,North,0,1.1,1.8,42,0.00,,,0.00,WUHU216HW,2013-02-20 09:40:00,
2013-02-20 04:45:00,26.1,6.0,29.89,North,0,0.4,1.8,42,0.00,,,0.00,WUHU216HW,2013-02-20 09:45:00,
2013-02-20 04:50:00,26.1,5.6,29.89,East,90,2.5,2.5,41,0.00,,,0.00,WUHU216HW,2013-02-20 09:50:00,
2013-02-20 04:55:00,26.1,5.6,29.89,WNW,293,1.8,2.5,41,0.00,,,0.00,WUHU216HW,2013-02-20 09:55:00,
2013-02-20 05:00:00,26.1,5.6,29.90,North,0,3.6,3.6,41,0.00,,,0.00,WUHU216HW,2013-02-20 10:00:00,
2013-02-20 05:05:00,26.1,5.1,29.92,NNE,23,0.9,3.6,40,0.00,,,0.00,WUHU216HW,2013-02-20 10:05:00,
2013-02-20 05:10:00,26.3,5.2,29.90,ENE,68,0.4,2.0,40,0.00,,,0.00,WUHU216HW,2013-02-20 10:10:00,
2013-02-20 05:15:00,26.1,5.6,29.91,ENE,68,0.9,1.6,41,0.00,,,0.00,WUHU216HW,2013-02-20 10:15:00,
2013-02-20 05:20:00,26.1,5.6,29.91,ENE,68,0.4,0.9,41,0.00,,,0.00,WUHU216HW,2013-02-20 10:20:00,
2013-02-20 05:25:00,25.9,5.4,29.91,East,90,0.9,0.9,41,0.00,,,0.00,WUHU216HW,2013-02-20 10:25:00,
2013-02-20 05:30:00,25.9,5.4,29.91,NNW,338,0.4,1.1,41,0.00,,,0.00,WUHU216HW,2013-02-20 10:30:00,
2013-02-20 05:35:00,25.9,5.4,29.90,ENE,68,0.4,1.1,41,0.00,,,0.00,WUHU216HW,2013-02-20 10:35:00,
2013-02-20 05:40:00,25.9,5.4,29.91,SW,225,1.3,1.3,41,0.00,,,0.00,WUHU216HW,2013-02-20 10:40:00,
2013-02-20 05:45:00,25.9,5.4,29.90,ENE,68,1.1,2.5,41,0.00,,,0.00,WUHU216HW,2013-02-20 10:45:00,
2013-02-20 05:50:00,25.9,5.4,29.91,ENE,68,0.7,2.5,41,0.00,,,0.00,WUHU216HW,2013-02-20 10:50:00,
2013-02-20 05:55:00,25.9,5.4,29.91,WNW,293,0.7,1.1,41,0.00,,,0.00,WUHU216HW,2013-02-20 10:55:00,
2013-02-20 06:00:00,25.7,5.2,29.92,West,270,1.3,1.3,41,0.00,,,0.00,WUHU216HW,2013-02-20 11:00:00,
2013-02-20 06:05:00,25.7,5.2,29.92,WNW,293,1.1,1.6,41,0.00,,,0.00,WUHU216HW,2013-02-20 11:05:00,
2013-02-20 06:10:00,25.9,5.4,29.92,West,270,1.1,1.8,41,0.00,,,0.00,WUHU216HW,2013-02-20 11:10:00,
2013-02-20 06:15:00,25.9,5.0,29.92,NNW,338,0.2,1.8,40,0.00,,,0.00,WUHU216HW,2013-02-20 11:15:00,
2013-02-20 06:20:00,25.7,4.8,29.92,NE,45,0.7,1.6,40,0.00,,,0.00,WUHU216HW,2013-02-20 11:20:00,
2013-02-20 06:25:00,25.7,5.2,29.93,North,0,0.2,1.6,41,0.00,,,0.00,WUHU216HW,2013-02-20 11:25:00,
2013-02-20 06:30:00,25.7,5.2,29.92,North,0,0.4,0.9,41,0.00,,,0.00,WUHU216HW,2013-02-20 11:30:00,
2013-02-20 06:35:00,25.7,4.8,29.92,NNE,23,0.7,0.9,40,0.00,,,0.00,WUHU216HW,2013-02-20 11:35:00,
2013-02-20 06:40:00,25.9,5.0,29.92,North,0,0.4,1.6,40,0.00,,,0.00,WUHU216HW,2013-02-20 11:40:00,
2013-02-20 06:45:00,25.9,4.3,29.92,NNE,23,0.4,1.6,39,0.00,,,0.00,WUHU216HW,2013-02-20 11:45:00,
2013-02-20 06:50:00,25.9,4.3,29.92,NNE,23,1.8,2.7,39,0.00,,,0.00,WUHU216HW,2013-02-20 11:50:00,
2013-02-20 06:55:00,25.9,4.3,29.92,ENE,68,0.4,2.7,39,0.00,,,0.00,WUHU216HW,2013-02-20 11:55:00,
2013-02-20 07:00:00,26.1,4.5,29.92,WNW,293,0.7,1.1,39,0.00,,,0.00,WUHU216HW,2013-02-20 12:00:00,
2013-02-20 07:05:00,26.1,3.9,29.92,NW,315,1.1,1.1,38,0.00,,,0.00,WUHU216HW,2013-02-20 12:05:00,
2013-02-20 07:10:00,26.1,3.9,29.93,NNE,23,1.3,1.3,38,0.00,,,0.00,WUHU216HW,2013-02-20 12:10:00,
2013-02-20 07:15:00,26.1,3.9,29.92,NNE,23,0.9,2.2,38,0.00,,,0.00,WUHU216HW,2013-02-20 12:15:00,
2013-02-20 07:20:00,26.1,3.9,29.92,SSE,158,0.4,2.2,38,0.00,,,0.00,WUHU216HW,2013-02-20 12:20:00,
2013-02-20 07:25:00,26.1,3.9,29.92,North,0,1.1,1.3,38,0.00,,,0.00,WUHU216HW,2013-02-20 12:25:00,
2013-02-20 07:30:00,26.1,3.9,29.92,West,270,1.1,1.3,38,0.00,,,0.00,WUHU216HW,2013-02-20 12:30:00,
2013-02-20 07:35:00,26.1,3.9,29.93,NNE,23,0.7,2.2,38,0.00,,,0.00,WUHU216HW,2013-02-20 12:35:00,
2013-02-20 07:40:00,26.1,3.3,29.93,NW,315,0.9,2.2,37,0.00,,,0.00,WUHU216HW,2013-02-20 12:40:00,
2013-02-20 07:45:00,26.3,3.4,29.93,NE,45,1.6,1.8,37,0.00,,,0.00,WUHU216HW,2013-02-20 12:45:00,
2013-02-20 07:50:00,26.3,3.4,29.94,SSW,203,3.8,3.8,37,0.00,,,0.00,WUHU216HW,2013-02-20 12:50:00,
2013-02-20 07:55:00,26.3,3.4,29.94,ENE,68,0.4,3.8,37,0.00,,,0.00,WUHU216HW,2013-02-20 12:55:00,
2013-02-20 08:00:00,26.3,2.8,29.94,NE,45,1.1,1.1,36,0.00,,,0.00,WUHU216HW,2013-02-20 13:00:00,
2013-02-20 08:05:00,26.3,3.4,29.94,WNW,293,0.4,1.1,37,0.00,,,0.00,WUHU216HW,2013-02-20 13:05:00,
2013-02-20 08:10:00,26.5,2.9,29.94,NNW,338,0.4,1.1,36,0.00,,,0.00,WUHU216HW,2013-02-20 13:10:00,
2013-02-20 08:15:00,26.5,2.9,29.94,NE,45,0.7,1.1,36,0.00,,,0.00,WUHU216HW,2013-02-20 13:15:00,
2013-02-20 08:20:00,26.8,3.3,29.94,North,0,0.9,1.3,36,0.00,,,0.00,WUHU216HW,2013-02-20 13:20:00,
2013-02-20 08:25:00,27.0,3.4,29.94,NW,315,1.1,1.3,36,0.00,,,0.00,WUHU216HW,2013-02-20 13:25:00,
2013-02-20 08:30:00,27.2,2.9,29.96,ESE,113,0.9,1.1,35,0.00,,,0.00,WUHU216HW,2013-02-20 13:30:00,
2013-02-20 08:35:00,27.4,3.7,29.95,North,0,0.4,0.9,36,0.00,,,0.00,WUHU216HW,2013-02-20 13:35:00,
2013-02-20 08:40:00,27.5,3.9,29.96,NW,315,0.0,0.7,36,0.00,,,0.00,WUHU216HW,2013-02-20 13:40:00,
2013-02-20 08:45:00,27.9,3.6,29.96,WNW,293,0.2,1.6,35,0.00,,,0.00,WUHU216HW,2013-02-20 13:45:00,
2013-02-20 08:50:00,28.3,3.9,29.96,West,270,0.4,1.6,35,0.00,,,0.00,WUHU216HW,2013-02-20 13:50:00,
2013-02-20 08:55:00,28.4,4.1,29.96,West,270,0.7,0.7,35,0.00,,,0.00,WUHU216HW,2013-02-20 13:55:00,
2013-02-20 09:00:00,28.8,3.2,29.97,NW,315,0.0,0.9,33,0.00,,,0.00,WUHU216HW,2013-02-20 14:00:00,
2013-02-20 09:05:00,29.2,2.8,29.97,East,90,0.0,1.1,32,0.00,,,0.00,WUHU216HW,2013-02-20 14:05:00,
2013-02-20 09:10:00,29.3,3.0,29.97,SW,225,0.0,1.1,32,0.00,,,0.00,WUHU216HW,2013-02-20 14:10:00,
2013-02-20 09:15:00,29.9,3.4,29.97,ENE,68,0.4,0.9,32,0.00,,,0.00,WUHU216HW,2013-02-20 14:15:00,
2013-02-20 09:20:00,30.2,3.8,29.96,WNW,293,0.0,0.9,32,0.00,,,0.00,WUHU216HW,2013-02-20 14:20:00,
2013-02-20 09:25:00,30.6,2.9,29.97,NW,315,0.4,0.9,30,0.00,,,0.00,WUHU216HW,2013-02-20 14:25:00,
2013-02-20 09:30:00,31.0,3.2,29.97,WNW,293,1.1,1.1,30,0.00,,,0.00,WUHU216HW,2013-02-20 14:30:00,
2013-02-20 09:35:00,31.3,3.5,29.97,WNW,293,1.6,2.2,30,0.00,,,0.00,WUHU216HW,2013-02-20 14:35:00,
2013-02-20 09:40:00,31.7,2.1,29.98,West,270,1.1,2.2,28,0.00,,,0.00,WUHU216HW,2013-02-20 14:40:00,
2013-02-20 09:45:00,31.9,1.4,29.98,NW,315,0.7,1.6,27,0.00,,,0.00,WUHU216HW,2013-02-20 14:45:00,
2013-02-20 09:50:00,32.0,1.5,29.97,WNW,293,1.8,1.8,27,0.00,,,0.00,WUHU216HW,2013-02-20 14:50:00,
2013-02-20 09:55:00,32.2,-0.9,29.98,NNE,23,0.9,1.8,24,0.00,,,0.00,WUHU216HW,2013-02-20 14:55:00,
2013-02-20 10:00:00,32.4,1.0,29.97,ENE,68,1.1,1.8,26,0.00,,,0.00,WUHU216HW,2013-02-20 15:00:00,
2013-02-20 10:05:00,32.8,1.3,29.98,NNW,338,0.4,1.8,26,0.00,,,0.00,WUHU216HW,2013-02-20 15:05:00,
2013-02-20 10:10:00,32.9,-0.3,29.98,ESE,113,0.4,1.3,24,0.00,,,0.00,WUHU216HW,2013-02-20 15:10:00,
2013-02-20 10:15:00,33.3,1.8,29.98,SW,225,0.4,1.3,26,0.00,,,0.00,WUHU216HW,2013-02-20 15:15:00,
2013-02-20 10:20:00,33.7,2.1,29.98,NNE,23,1.3,1.3,26,0.00,,,0.00,WUHU216HW,2013-02-20 15:20:00,
2013-02-20 10:25:00,34.0,2.3,29.98,WNW,293,0.2,1.3,26,0.00,,,0.00,WUHU216HW,2013-02-20 15:25:00,
2013-02-20 10:30:00,34.2,0.8,29.98,SSE,158,0.4,1.3,24,0.00,,,0.00,WUHU216HW,2013-02-20 15:30:00,
2013-02-20 10:35:00,34.6,1.1,29.98,West,270,1.1,1.3,24,0.00,,,0.00,WUHU216HW,2013-02-20 15:35:00,
2013-02-20 10:40:00,34.9,2.3,29.98,West,270,0.4,2.5,25,0.00,,,0.00,WUHU216HW,2013-02-20 15:40:00,
2013-02-20 10:45:00,35.8,1.3,29.98,SSW,203,1.1,2.5,23,0.00,,,0.00,WUHU216HW,2013-02-20 15:45:00,
2013-02-20 10:50:00,36.4,1.7,29.97,ESE,113,0.7,1.3,23,0.00,,,0.00,WUHU216HW,2013-02-20 15:50:00,
2013-02-20 10:55:00,36.7,0.3,29.98,NNE,23,0.4,3.4,21,0.00,,,0.00,WUHU216HW,2013-02-20 15:55:00,
2013-02-20 11:00:00,36.7,-0.5,29.99,North,0,1.1,3.4,20,0.00,,,0.00,WUHU216HW,2013-02-20 16:00:00,
2013-02-20 11:05:00,36.5,0.2,29.99,West,270,0.4,1.1,21,0.00,,,0.00,WUHU216HW,2013-02-20 16:05:00,
2013-02-20 11:10:00,36.7,0.3,29.97,North,0,0.9,1.8,21,0.00,,,0.00,WUHU216HW,2013-02-20 16:10:00,
2013-02-20 11:15:00,36.9,1.4,29.98,ENE,68,0.7,1.8,22,0.00,,,0.00,WUHU216HW,2013-02-20 16:15:00,
2013-02-20 11:20:00,37.1,0.6,29.98,WSW,248,0.4,0.7,21,0.00,,,0.00,WUHU216HW,2013-02-20 16:20:00,
2013-02-20 11:25:00,37.6,1.0,29.98,WSW,248,1.8,1.8,21,0.00,,,0.00,WUHU216HW,2013-02-20 16:25:00,
2013-02-20 11:30:00,38.0,1.4,29.97,North,0,0.0,1.8,21,0.00,,,0.00,WUHU216HW,2013-02-20 16:30:00,
2013-02-20 11:35:00,38.3,1.6,29.97,WNW,293,0.0,1.8,21,0.00,,,0.00,WUHU216HW,2013-02-20 16:35:00,
2013-02-20 11:40:00,38.5,0.9,29.98,West,270,1.1,1.6,20,0.00,,,0.00,WUHU216HW,2013-02-20 16:40:00,
2013-02-20 11:45:00,38.5,1.8,29.98,NE,45,1.1,1.6,21,0.00,,,0.00,WUHU216HW,2013-02-20 16:45:00,
2013-02-20 11:50:00,38.9,2.1,29.99,WNW,293,1.8,1.8,21,0.00,,,0.00,WUHU216HW,2013-02-20 16:50:00,
2013-02-20 11:55:00,39.4,3.4,29.98,East,90,0.2,1.8,22,0.00,,,0.00,WUHU216HW,2013-02-20 16:55:00,
2013-02-20 12:00:00,40.0,3.9,29.98,North,0,0.2,0.7,22,0.00,,,0.00,WUHU216HW,2013-02-20 17:00:00,
2013-02-20 12:05:00,40.3,4.2,29.99,NW,315,0.0,0.4,22,0.00,,,0.00,WUHU216HW,2013-02-20 17:05:00,
2013-02-20 12:10:00,40.5,4.4,29.98,NW,315,0.4,0.4,22,0.00,,,0.00,WUHU216HW,2013-02-20 17:10:00,
2013-02-20 12:15:00,40.5,3.5,29.99,NNE,23,0.4,0.9,21,0.00,,,0.00,WUHU216HW,2013-02-20 17:15:00,
2013-02-20 12:20:00,40.7,3.6,29.98,ENE,68,0.0,0.9,21,0.00,,,0.00,WUHU216HW,2013-02-20 17:20:00,
2013-02-20 12:25:00,41.0,4.9,29.98,West,270,0.4,0.9,22,0.00,,,0.00,WUHU216HW,2013-02-20 17:25:00,
2013-02-20 12:30:00,41.2,4.2,29.98,ESE,113,0.9,0.9,21,0.00,,,0.00,WUHU216HW,2013-02-20 17:30:00,
2013-02-20 12:35:00,41.4,4.2,29.97,NW,315,0.2,0.9,21,0.00,,,0.00,WUHU216HW,2013-02-20 17:35:00,
2013-02-20 12:40:00,41.2,4.2,29.98,West,270,0.2,1.8,21,0.00,,,0.00,WUHU216HW,2013-02-20 17:40:00,
2013-02-20 12:45:00,41.0,4.9,29.97,West,270,0.0,1.8,22,0.00,,,0.00,WUHU216HW,2013-02-20 17:45:00,
2013-02-20 12:50:00,41.2,5.1,29.98,North,0,0.0,0.7,22,0.00,,,0.00,WUHU216HW,2013-02-20 17:50:00,
2013-02-20 12:55:00,41.6,4.4,29.97,NNE,23,0.4,0.7,21,0.00,,,0.00,WUHU216HW,2013-02-20 17:55:00,
2013-02-20 13:00:00,41.9,5.6,29.97,NE,45,0.4,0.7,22,0.00,,,0.00,WUHU216HW,2013-02-20 18:00:00,
2013-02-20 13:05:00,42.1,5.8,29.97,North,0,0.0,0.7,22,0.00,,,0.00,WUHU216HW,2013-02-20 18:05:00,
2013-02-20 13:10:00,42.5,6.0,29.97,WNW,293,0.4,1.6,22,0.00,,,0.00,WUHU216HW,2013-02-20 18:10:00,
2013-02-20 13:15:00,42.5,6.0,29.96,NNE,23,0.4,1.6,22,0.00,,,0.00,WUHU216HW,2013-02-20 18:15:00,
2013-02-20 13:20:00,42.3,5.9,29.96,NE,45,0.4,0.9,22,0.00,,,0.00,WUHU216HW,2013-02-20 18:20:00,
2013-02-20 13:25:00,42.1,5.8,29.96,NNE,23,0.4,0.9,22,0.00,,,0.00,WUHU216HW,2013-02-20 18:25:00,
2013-02-20 13:30:00,42.1,5.8,29.95,NNE,23,0.4,0.4,22,0.00,,,0.00,WUHU216HW,2013-02-20 18:30:00,
2013-02-20 13:35:00,41.9,5.6,29.95,NNE,23,0.7,1.6,22,0.00,,,0.00,WUHU216HW,2013-02-20 18:35:00,
2013-02-20 13:40:00,41.8,6.3,29.96,West,270,0.4,1.6,23,0.00,,,0.00,WUHU216HW,2013-02-20 18:40:00,
2013-02-20 13:45:00,41.9,6.5,29.95,NNE,23,0.2,0.9,23,0.00,,,0.00,WUHU216HW,2013-02-20 18:45:00,
2013-02-20 13:50:00,42.1,6.7,29.95,NNE,23,0.4,0.9,23,0.00,,,0.00,WUHU216HW,2013-02-20 18:50:00,
2013-02-20 13:55:00,42.1,5.8,29.95,WNW,293,0.0,1.3,22,0.00,,,0.00,WUHU216HW,2013-02-20 18:55:00,
2013-02-20 14:00:00,42.3,6.8,29.96,WNW,293,0.2,1.3,23,0.00,,,0.00,WUHU216HW,2013-02-20 19:00:00,
2013-02-20 14:05:00,42.7,6.1,29.94,WSW,248,0.7,0.7,22,0.00,,,0.00,WUHU216HW,2013-02-20 19:05:00,
2013-02-20 14:10:00,42.7,6.1,29.95,ENE,68,0.9,0.9,22,0.00,,,0.00,WUHU216HW,2013-02-20 19:10:00,
2013-02-20 14:15:00,42.7,6.1,29.95,SE,135,0.9,1.3,22,0.00,,,0.00,WUHU216HW,2013-02-20 19:15:00,
2013-02-20 14:20:00,42.5,6.9,29.95,WSW,248,0.0,1.3,23,0.00,,,0.00,WUHU216HW,2013-02-20 19:20:00,
2013-02-20 14:26:00,42.5,6.9,29.95,WNW,293,0.0,1.1,23,0.00,,,0.00,WUHU216HW,2013-02-20 19:26:00,
2013-02-20 14:31:00,42.7,7.9,29.95,ESE,113,0.0,1.1,24,0.00,,,0.00,WUHU216HW,2013-02-20 19:31:00,
2013-02-20 14:36:00,43.0,7.4,29.96,WNW,293,0.4,0.4,23,0.00,,,0.00,WUHU216HW,2013-02-20 19:36:00,
2013-02-20 14:41:00,43.2,6.7,29.95,SSE,158,2.0,2.0,22,0.00,,,0.00,WUHU216HW,2013-02-20 19:41:00,
2013-02-20 14:46:00,43.2,7.6,29.96,WNW,293,0.0,2.7,23,0.00,,,0.00,WUHU216HW,2013-02-20 19:46:00,
2013-02-20 14:51:00,43.2,6.7,29.95,NE,45,0.7,2.7,22,0.00,,,0.00,WUHU216HW,2013-02-20 19:51:00,
2013-02-20 14:56:00,43.4,6.8,29.95,West,270,0.7,1.1,22,0.00,,,0.00,WUHU216HW,2013-02-20 19:56:00,
2013-02-20 15:01:00,43.6,7.8,29.94,West,270,0.0,1.1,23,0.00,,,0.00,WUHU216HW,2013-02-20 20:01:00,
2013-02-20 15:06:00,43.9,9.1,29.95,WNW,293,0.4,0.4,24,0.00,,,0.00,WUHU216HW,2013-02-20 20:06:00,
2013-02-20 15:11:00,44.1,9.3,29.95,WNW,293,0.4,0.4,24,0.00,,,0.00,WUHU216HW,2013-02-20 20:11:00,
2013-02-20 15:16:00,44.3,9.4,29.95,NW,315,0.0,0.4,24,0.00,,,0.00,WUHU216HW,2013-02-20 20:16:00,
2013-02-20 15:21:00,44.3,8.5,29.95,NNW,338,0.0,0.0,23,0.00,,,0.00,WUHU216HW,2013-02-20 20:21:00,
2013-02-20 15:26:00,44.3,9.4,29.96,WNW,293,0.0,0.4,24,0.00,,,0.00,WUHU216HW,2013-02-20 20:26:00,
2013-02-20 15:31:00,44.5,9.5,29.95,WNW,293,0.2,0.4,24,0.00,,,0.00,WUHU216HW,2013-02-20 20:31:00,
2013-02-20 15:36:00,44.5,9.5,29.95,WNW,293,0.0,0.4,24,0.00,,,0.00,WUHU216HW,2013-02-20 20:36:00,
2013-02-20 15:41:00,44.3,9.4,29.96,NW,315,0.0,0.0,24,0.00,,,0.00,WUHU216HW,2013-02-20 20:41:00,
2013-02-20 15:46:00,44.1,9.3,29.96,WNW,293,1.1,1.1,24,0.00,,,0.00,WUHU216HW,2013-02-20 20:46:00,
2013-02-20 15:51:00,43.9,8.2,29.97,West,270,0.9,1.1,23,0.00,,,0.00,WUHU216HW,2013-02-20 20:51:00,
2013-02-20 15:56:00,43.6,6.9,29.97,WNW,293,0.0,0.9,22,0.00,,,0.00,WUHU216HW,2013-02-20 20:56:00,
2013-02-20 16:01:00,43.4,6.8,29.97,WSW,248,1.8,1.8,22,0.00,,,0.00,WUHU216HW,2013-02-20 21:01:00,
2013-02-20 16:06:00,43.2,6.7,29.96,WSW,248,0.0,1.8,22,0.00,,,0.00,WUHU216HW,2013-02-20 21:06:00,
2013-02-20 16:11:00,43.0,5.6,29.97,WSW,248,0.0,0.7,21,0.00,,,0.00,WUHU216HW,2013-02-20 21:11:00,
2013-02-20 16:16:00,42.8,6.3,29.97,WNW,293,0.0,0.4,22,0.00,,,0.00,WUHU216HW,2013-02-20 21:16:00,
2013-02-20 16:21:00,42.7,6.1,29.97,West,270,0.0,0.4,22,0.00,,,0.00,WUHU216HW,2013-02-20 21:21:00,
2013-02-20 16:26:00,42.5,5.1,29.98,West,270,0.0,0.4,21,0.00,,,0.00,WUHU216HW,2013-02-20 21:26:00,
2013-02-20 16:31:00,42.3,5.9,29.97,West,270,0.0,1.8,22,0.00,,,0.00,WUHU216HW,2013-02-20 21:31:00,
2013-02-20 16:36:00,42.1,4.9,29.98,West,270,1.6,1.8,21,0.00,,,0.00,WUHU216HW,2013-02-20 21:36:00,
2013-02-20 16:41:00,41.8,3.6,29.97,West,270,0.2,1.6,20,0.00,,,0.00,WUHU216HW,2013-02-20 21:41:00,
2013-02-20 16:46:00,41.6,4.4,29.98,WNW,293,0.0,1.3,21,0.00,,,0.00,WUHU216HW,2013-02-20 21:46:00,
2013-02-20 16:51:00,41.4,3.3,29.94,NW,315,0.2,0.9,20,0.00,,,0.00,WUHU216HW,2013-02-20 21:51:00,
2013-02-20 16:56:00,41.2,3.3,29.94,NW,315,0.0,1.3,20,0.00,,,0.00,WUHU216HW,2013-02-20 21:56:00,
2013-02-20 17:01:00,40.9,2.9,29.94,North,0,0.0,1.3,20,0.00,,,0.00,WUHU216HW,2013-02-20 22:01:00,
2013-02-20 17:06:00,40.9,3.8,29.94,NW,315,0.0,0.9,21,0.00,,,0.00,WUHU216HW,2013-02-20 22:06:00,
2013-02-20 17:11:00,40.7,2.7,29.94,NW,315,0.0,0.9,20,0.00,,,0.00,WUHU216HW,2013-02-20 22:11:00,
2013-02-20 17:16:00,40.7,2.7,29.93,NNW,338,0.0,0.4,20,0.00,,,0.00,WUHU216HW,2013-02-20 22:16:00,
2013-02-20 17:21:00,40.7,2.7,29.94,WNW,293,0.0,0.2,20,0.00,,,0.00,WUHU216HW,2013-02-20 22:21:00,
2013-02-20 17:26:00,40.5,3.5,29.94,West,270,0.7,0.7,21,0.00,,,0.00,WUHU216HW,2013-02-20 22:26:00,
2013-02-20 17:31:00,40.5,3.5,29.94,West,270,0.0,0.7,21,0.00,,,0.00,WUHU216HW,2013-02-20 22:31:00,
2013-02-20 17:36:00,40.3,3.3,29.94,West,270,0.0,0.0,21,0.00,,,0.00,WUHU216HW,2013-02-20 22:36:00,
2013-02-20 17:41:00,40.3,3.3,29.94,West,270,0.0,0.0,21,0.00,,,0.00,WUHU216HW,2013-02-20 22:41:00,
2013-02-20 17:46:00,40.1,4.1,29.94,SSW,203,0.0,0.4,22,0.00,,,0.00,WUHU216HW,2013-02-20 22:46:00,
2013-02-20 17:51:00,40.1,4.1,29.94,SSE,158,0.0,0.4,22,0.00,,,0.00,WUHU216HW,2013-02-20 22:51:00,
2013-02-20 17:56:00,40.0,3.0,29.94,SSE,158,0.0,0.0,21,0.00,,,0.00,WUHU216HW,2013-02-20 22:56:00,
2013-02-20 18:01:00,40.0,3.9,29.95,SSE,158,0.0,0.0,22,0.00,,,0.00,WUHU216HW,2013-02-20 23:01:00,
2013-02-20 18:06:00,40.0,3.9,29.95,SSE,158,0.0,0.0,22,0.00,,,0.00,WUHU216HW,2013-02-20 23:06:00,
2013-02-20 18:11:00,39.8,3.7,29.94,SSE,158,0.0,0.0,22,0.00,,,0.00,WUHU216HW,2013-02-20 23:11:00,
2013-02-20 18:16:00,39.6,3.6,29.94,SSE,158,0.0,0.0,22,0.00,,,0.00,WUHU216HW,2013-02-20 23:16:00,
2013-02-20 18:21:00,39.4,2.5,29.94,SE,135,0.0,0.4,21,0.00,,,0.00,WUHU216HW,2013-02-20 23:21:00,
2013-02-20 18:26:00,39.2,3.2,29.94,SE,135,0.0,0.4,22,0.00,,,0.00,WUHU216HW,2013-02-20 23:26:00,
2013-02-20 18:31:00,39.2,3.2,29.93,SE,135,0.0,0.2,22,0.00,,,0.00,WUHU216HW,2013-02-20 23:31:00,
2013-02-20 18:36:00,39.1,3.1,29.94,SE,135,0.0,0.0,22,0.00,,,0.00,WUHU216HW,2013-02-20 23:36:00,
2013-02-20 18:41:00,38.9,3.0,29.92,SE,135,0.0,0.0,22,0.00,,,0.00,WUHU216HW,2013-02-20 23:41:00,
2013-02-20 18:46:00,38.9,2.1,29.94,NNW,338,0.4,0.4,21,0.00,,,0.00,WUHU216HW,2013-02-20 23:46:00,
2013-02-20 18:51:00,38.9,2.1,29.94,NW,315,0.0,0.4,21,0.00,,,0.00,WUHU216HW,2013-02-20 23:51:00,
2013-02-20 18:56:00,38.9,2.1,29.93,NW,315,0.0,0.0,21,0.00,,,0.00,WUHU216HW,2013-02-20 23:56:00,
2013-02-20 19:01:00,38.7,2.8,29.92,WNW,293,1.1,1.1,22,0.00,,,0.00,WUHU216HW,2013-02-21 00:01:00,
2013-02-20 19:06:00,38.5,3.5,29.95,WNW,293,0.0,1.1,23,0.00,,,0.00,WUHU216HW,2013-02-21 00:06:00,
2013-02-20 19:11:00,38.2,3.2,29.96,West,270,0.0,1.1,23,0.00,,,0.00,WUHU216HW,2013-02-21 00:11:00,
2013-02-20 19:16:00,38.0,2.3,29.94,NNW,338,0.0,1.1,22,0.00,,,0.00,WUHU216HW,2013-02-21 00:16:00,
2013-02-20 19:21:00,38.0,2.3,29.94,NNW,338,0.0,0.4,22,0.00,,,0.00,WUHU216HW,2013-02-21 00:21:00,
2013-02-20 19:26:00,37.8,3.0,29.94,NE,45,0.0,0.0,23,0.00,,,0.00,WUHU216HW,2013-02-21 00:26:00,
2013-02-20 19:31:00,37.8,2.1,29.94,NW,315,0.0,0.2,22,0.00,,,0.00,WUHU216HW,2013-02-21 00:31:00,
2013-02-20 19:36:00,37.8,1.2,29.94,SSE,158,0.0,0.4,21,0.00,,,0.00,WUHU216HW,2013-02-21 00:36:00,
2013-02-20 19:41:00,37.8,2.1,29.94,South,180,0.4,0.4,22,0.00,,,0.00,WUHU216HW,2013-02-21 00:41:00,
2013-02-20 19:46:00,37.6,1.9,29.94,SSW,203,0.0,0.4,22,0.00,,,0.00,WUHU216HW,2013-02-21 00:46:00,
2013-02-20 19:51:00,37.4,1.8,29.93,WSW,248,0.0,0.0,22,0.00,,,0.00,WUHU216HW,2013-02-21 00:51:00,
2013-02-20 19:56:00,37.3,2.5,29.94,WNW,293,0.0,0.2,23,0.00,,,0.00,WUHU216HW,2013-02-21 00:56:00,
2013-02-20 20:01:00,37.1,2.3,29.95,WNW,293,0.0,0.4,23,0.00,,,0.00,WUHU216HW,2013-02-21 01:01:00,
2013-02-20 20:06:00,36.9,2.2,29.97,WNW,293,0.0,0.4,23,0.00,,,0.00,WUHU216HW,2013-02-21 01:06:00,
2013-02-20 20:11:00,36.7,2.9,29.97,North,0,0.0,0.0,24,0.00,,,0.00,WUHU216HW,2013-02-21 01:11:00,
2013-02-20 20:16:00,36.5,1.9,29.98,North,0,0.0,0.0,23,0.00,,,0.00,WUHU216HW,2013-02-21 01:16:00,
2013-02-20 20:21:00,36.5,1.9,29.98,North,0,0.4,0.4,23,0.00,,,0.00,WUHU216HW,2013-02-21 01:21:00,
2013-02-20 20:26:00,36.5,1.9,29.98,North,0,0.0,0.4,23,0.00,,,0.00,WUHU216HW,2013-02-21 01:26:00,
2013-02-20 20:31:00,36.4,1.7,29.99,WNW,293,0.0,0.4,23,0.00,,,0.00,WUHU216HW,2013-02-21 01:31:00,
2013-02-20 20:36:00,36.4,1.7,29.98,NNW,338,0.0,0.0,23,0.00,,,0.00,WUHU216HW,2013-02-21 01:36:00,
2013-02-20 20:41:00,36.4,1.7,29.98,NNW,338,0.0,0.0,23,0.00,,,0.00,WUHU216HW,2013-02-21 01:41:00,
2013-02-20 20:46:00,36.2,1.6,29.98,NNW,338,0.0,0.0,23,0.00,,,0.00,WUHU216HW,2013-02-21 01:46:00,
2013-02-20 20:51:00,36.2,1.6,29.99,NE,45,0.0,0.2,23,0.00,,,0.00,WUHU216HW,2013-02-21 01:51:00,
2013-02-20 20:56:00,36.0,1.4,29.98,NE,45,0.0,0.2,23,0.00,,,0.00,WUHU216HW,2013-02-21 01:56:00,
2013-02-20 21:01:00,35.8,2.2,29.98,NNE,23,0.0,0.0,24,0.00,,,0.00,WUHU216HW,2013-02-21 02:01:00,
2013-02-20 21:06:00,35.6,2.0,29.98,NW,315,0.0,0.0,24,0.00,,,0.00,WUHU216HW,2013-02-21 02:06:00,
2013-02-20 21:11:00,35.6,2.0,29.97,NW,315,0.0,0.0,24,0.00,,,0.00,WUHU216HW,2013-02-21 02:11:00,
2013-02-20 21:16:00,35.6,2.0,29.98,NW,315,0.0,0.2,24,0.00,,,0.00,WUHU216HW,2013-02-21 02:16:00,
2013-02-20 21:21:00,35.6,2.0,29.98,WNW,293,0.0,0.2,24,0.00,,,0.00,WUHU216HW,2013-02-21 02:21:00,
2013-02-20 21:26:00,35.6,2.0,29.98,WNW,293,0.7,1.1,24,0.00,,,0.00,WUHU216HW,2013-02-21 02:26:00,
2013-02-20 21:31:00,35.6,2.0,29.98,WNW,293,0.0,1.1,24,0.00,,,0.00,WUHU216HW,2013-02-21 02:31:00,
2013-02-20 21:36:00,35.6,2.0,29.98,NW,315,0.0,0.4,24,0.00,,,0.00,WUHU216HW,2013-02-21 02:36:00,
2013-02-20 21:41:00,35.5,1.9,29.99,North,0,0.0,0.4,24,0.00,,,0.00,WUHU216HW,2013-02-21 02:41:00,
2013-02-20 21:46:00,35.5,1.9,29.98,West,270,0.0,0.4,24,0.00,,,0.00,WUHU216HW,2013-02-21 02:46:00,
2013-02-20 21:51:00,35.5,1.9,29.98,NW,315,0.0,1.8,24,0.00,,,0.00,WUHU216HW,2013-02-21 02:51:00,
2013-02-20 21:56:00,35.3,2.6,29.99,WNW,293,0.2,1.8,25,0.00,,,0.00,WUHU216HW,2013-02-21 02:56:00,
2013-02-20 22:01:00,35.3,2.6,29.99,WNW,293,0.0,0.4,25,0.00,,,0.00,WUHU216HW,2013-02-21 03:01:00,
2013-02-20 22:06:00,35.3,3.4,29.98,NW,315,0.0,0.4,26,0.00,,,0.00,WUHU216HW,2013-02-21 03:06:00,
2013-02-20 22:11:00,35.1,3.3,29.98,WNW,293,0.0,0.4,26,0.00,,,0.00,WUHU216HW,2013-02-21 03:11:00,
2013-02-20 22:16:00,35.1,3.3,29.98,WNW,293,0.0,0.4,26,0.00,,,0.00,WUHU216HW,2013-02-21 03:16:00,
2013-02-20 22:21:00,34.9,3.2,29.98,WNW,293,0.0,0.4,26,0.00,,,0.00,WUHU216HW,2013-02-21 03:21:00,
2013-02-20 22:26:00,35.1,3.3,29.98,West,270,0.4,0.4,26,0.00,,,0.00,WUHU216HW,2013-02-21 03:26:00,
2013-02-20 22:31:00,35.1,3.3,29.97,WNW,293,0.0,0.4,26,0.00,,,0.00,WUHU216HW,2013-02-21 03:31:00,
2013-02-20 22:36:00,35.1,4.1,29.98,WNW,293,0.0,0.0,27,0.00,,,0.00,WUHU216HW,2013-02-21 03:36:00,
2013-02-20 22:41:00,35.1,4.1,29.99,WSW,248,0.0,1.1,27,0.00,,,0.00,WUHU216HW,2013-02-21 03:41:00,
2013-02-20 22:46:00,34.9,4.1,29.99,WSW,248,0.0,1.1,27,0.00,,,0.00,WUHU216HW,2013-02-21 03:46:00,
2013-02-20 22:51:00,34.9,4.1,29.99,WSW,248,0.0,0.0,27,0.00,,,0.00,WUHU216HW,2013-02-21 03:51:00,
2013-02-20 22:56:00,34.7,4.8,29.99,WSW,248,0.0,0.0,28,0.00,,,0.00,WUHU216HW,2013-02-21 03:56:00,
2013-02-20 23:01:00,34.6,4.6,29.99,WSW,248,0.0,0.0,28,0.00,,,0.00,WUHU216HW,2013-02-21 04:01:00,
2013-02-20 23:06:00,34.2,4.3,29.98,WSW,248,0.0,0.0,28,0.00,,,0.00,WUHU216HW,2013-02-21 04:06:00,
2013-02-20 23:11:00,34.2,5.1,29.98,WSW,248,0.0,0.0,29,0.00,,,0.00,WUHU216HW,2013-02-21 04:11:00,
2013-02-20 23:16:00,33.8,4.9,29.99,SE,135,0.2,0.9,29,0.00,,,0.00,WUHU216HW,2013-02-21 04:16:00,
2013-02-20 23:21:00,33.5,5.4,29.99,ESE,113,0.9,1.3,30,0.00,,,0.00,WUHU216HW,2013-02-21 04:21:00,
2013-02-20 23:26:00,32.8,5.4,29.99,SE,135,0.4,2.0,31,0.00,,,0.00,WUHU216HW,2013-02-21 04:26:00,
2013-02-20 23:31:00,32.4,6.4,29.99,SE,135,1.1,2.0,33,0.00,,,0.00,WUHU216HW,2013-02-21 04:31:00,
2013-02-20 23:36:00,32.2,6.2,29.98,SE,135,0.0,1.1,33,0.00,,,0.00,WUHU216HW,2013-02-21 04:36:00,
2013-02-20 23:41:00,32.0,6.0,29.99,SE,135,0.2,0.9,33,0.00,,,0.00,WUHU216HW,2013-02-21 04:41:00,
2013-02-20 23:46:00,31.9,7.1,29.98,SE,135,0.4,0.9,35,0.00,,,0.00,WUHU216HW,2013-02-21 04:46:00,
2013-02-20 23:51:00,31.7,6.9,29.98,SE,135,0.0,0.9,35,0.00,,,0.00,WUHU216HW,2013-02-21 04:51:00,
2013-02-20 23:56:00,31.7,7.6,29.98,SE,135,0.4,0.9,36,0.00,,,0.00,WUHU216HW,2013-02-21 04:56:00,